Location: Aranbee
(34.0885°N, 118.2342°W)
Time: 12:04:10
(UTC+00:00)

Tiros 1 - Pass Details

Date: 05 December 2020
Orbit: 630 x 663 km, 48.4° (Epoch: 21 January)

Event Time Altitude Azimuth Distance (km) Brightness Sun altitude
Rises 04:54:46 0° 288° (WNW) 2,971 - -51.3°
Reaches altitude 10° 04:58:10 10° 263° (W) 2,048 - -52.0°
Maximum altitude 05:00:33 14° 232° (SW) 1,793 - -52.5°
Drops below altitude 10° 05:02:56 10° 201° (SSW) 2,031 - -53.0°
Sets 05:06:18 0° 176° (S) 2,928 - -53.7°
